Location: Stamford Observatory
(41.1241°N, 73.5498°W)
Time: 17:15:31
(UTC-04:00)

Daily predictions for brighter satellites

Satellite Brightness Start Highest point End
(mag) Time Altitude Azimuth Time Altitude Azimuth Time Altitude Azimuth
ERS-1 Rocket 3.2 20:44:18 10° SSE 20:49:14 58° ENE 20:54:11 10° N
SJ-11-01 4.5 20:45:02 10° SSE 20:49:41 58° ENE 20:54:21 10° N
Cosmos 1869 Rocket 4.2 20:46:18 10° SSW 20:50:40 62° W 20:55:02 10° N
H-2A R/B 2.8 20:48:02 10° SE 20:52:01 36° ENE 20:55:56 10° N
Cosmos 1356 Rocket 3.8 20:49:30 10° SSE 20:53:29 44° E 20:57:33 10° NNE
ALOS 3.3 20:52:01 10° S 20:56:30 48° W 21:01:03 10° NNW
Resurs 01 Rocket 4.4 20:54:08 10° SW 20:56:58 17° W 20:59:49 10° NW
Cosmos 389 Rocket 4.4 20:54:34 10° NNW 20:57:39 30° W 21:00:43 10° SSW
ATLAS 5 CENTAUR R/B 2.8 20:53:16 10° NNW 20:59:06 52° NE 21:05:20 10° SE
USA 234 4.2 20:59:59 10° ENE 21:04:52 22° ESE 21:09:44 10° S
Cosmos 2278 Rocket 3.8 21:02:13 10° SE 21:05:17 15° E 21:08:20 10° ENE
Sich 1 Rocket 4.5 21:06:08 10° SSE 21:10:11 32° E 21:14:17 10° NNE
PSLV R/B 3.3 21:07:12 10° W 21:10:39 80° S 21:13:55 12° ESE
Meteor 2-3 Rocket 4.0 21:07:17 10° SSW 21:12:54 74° W 21:18:32 10° N
Okean 1-7 4.2 21:09:26 10° NNW 21:13:30 43° W 21:17:35 10° SSW
Abrixas rocket 2.7 21:10:52 10° WNW 21:14:13 53° SW 21:16:55 14° SE
CZ-4 DEB 4.1 21:13:30 10° S 21:16:29 38° W 21:19:30 10° NNW
Cosmos 1844 Rocket 3.1 21:13:21 10° S 21:18:37 41° ESE 21:23:53 10° NE
Cosmos 2056 Rocket 3.5 21:13:45 10° S 21:18:50 62° ESE 21:23:55 10° NNE
Meteor 1-27 Rocket 4.3 21:14:44 10° N 21:19:57 39° ENE 21:24:14 14° SE
Cosmos 1371 Rocket 4.0 21:15:28 10° SSW 21:20:48 88° ESE 21:26:07 10° NNE
Cosmos 1674 Rocket 3.8 21:16:31 10° N 21:20:56 55° E 21:24:53 12° SSE
Cosmos 1825 3.7 21:19:37 15° ESE 21:21:23 20° E 21:24:13 10° NE
Cosmos 1340 Rocket 3.7 21:19:10 10° SSW 21:23:03 52° WNW 21:27:00 10° N
Cosmos 2082 Rocket 4.4 21:21:15 10° NNE 21:23:15 12° NE 21:25:15 10° ENE
Cosmos 1939 Rocket 2.9 21:22:00 10° S 21:25:50 78° WSW 21:29:45 10° NNW
Cosmos 1461 4.1 21:21:45 10° SW 21:26:19 51° NW 21:30:46 10° NNE
Atlas Centaur 2 2.8 21:26:31 10° SSW 21:28:42 15° S 21:29:21 15° SSE
Cosmos 1782 2.8 21:25:34 10° N 21:29:34 66° E 21:32:54 15° SSE
Cosmos 2263 Rocket 4.1 21:28:24 10° WSW 21:33:31 34° WNW 21:38:38 10° N
CENTAUR R/B 3.3 21:28:18 10° NW 21:36:11 75° WSW 21:43:29 14° SSE
COSMOS 2487 4.4 21:35:45 10° NNE 21:38:21 18° ENE 21:39:40 15° E
MetOp-A 4.2 21:35:01 15° SSE 21:39:28 69° ENE 21:44:48 10° N
Cosmos 2154 Rocket 4.1 21:33:46 10° S 21:39:51 59° E 21:45:56 10° NNE
SL-27 R/B 2.5 21:36:46 10° NNW 21:40:26 74° ENE 21:42:35 23° SSE
YAOGAN 6 2.7 21:40:07 23° SE 21:42:02 54° ENE 21:45:29 10° N
Cosmos 1408 3.3 21:40:58 24° SE 21:42:30 34° E 21:45:51 10° NNE
SL-8 R/B 3.6 21:37:42 10° WSW 21:42:32 86° SSE 21:47:22 10° ENE
NOSS 2-2 (D) 3.7 21:40:13 10° SW 21:44:19 78° NW 21:49:06 10° NNE
Coronas F rocket 3.5 21:42:56 10° SW 21:45:15 26° WNW 21:47:34 10° NNW
Cosmos 2184 Rocket 4.5 21:41:02 10° SSW 21:47:08 62° W 21:53:15 10° N
deb Chang Zheng 4 4.3 21:43:27 10° N 21:47:46 57° WNW 21:52:06 10° SSW
COS B Rocket 3.3 21:43:50 10° N 21:48:07 75° E 21:50:52 19° S
Cosmos 1975 Rocket 3.9 21:44:34 10° N 21:48:31 33° ENE 21:50:14 24° ESE
SL-08 RB Rocket 4.4 21:46:49 22° ESE 21:49:09 38° ENE 21:53:25 10° N
Cosmos 1606 2.7 21:48:15 10° N 21:52:12 72° E 21:54:20 26° SSE
Okean 3 3.8 21:51:40 10° N 21:55:51 48° E 21:57:39 29° SE
Cosmos 1908 Rocket 3.5 21:53:55 14° S 21:57:40 83° E 22:02:07 10° N
H-2A R/B 3.1 21:56:03 21° ESE 21:58:39 32° ENE 22:03:22 10° N
NOSS 2-2 (C) 4.3 21:55:00 10° SW 21:59:02 56° NW 22:03:47 10° NNE
Envisat 3.9 21:54:16 10° S 21:59:07 46° W 22:04:01 10° NNW
USA 245 2.7 21:58:30 42° SE 21:59:18 64° ENE 22:02:48 10° N
Cosmos 1242 Rocket 3.6 21:59:26 10° NNE 22:02:41 30° ENE 22:03:15 28° E
Cosmos 1378 Rocket 3.4 22:01:38 10° N 22:05:58 84° E 22:08:06 29° S
CZ-4 SHROUD 4.1 22:08:16 26° SSW 22:09:35 44° W 22:12:35 10° NNW
TIMED 4.4 22:06:09 14° SSW 22:09:50 81° ESE 22:14:13 10° NNE
Intercosmos 25 3.4 22:12:07 41° SE 22:12:54 49° E 22:16:05 10° NNE
SPOT 1/Viking Rocket 3.5 22:10:27 26° SSE 22:13:30 87° WSW 22:18:45 10° NNW
ERBS 3.3 22:12:42 10° WNW 22:15:56 37° SW 22:16:36 33° SSW
Cosmos 407 Rocket 3.9 22:13:40 10° NNW 22:18:51 60° WSW 22:21:52 25° S
Cosmos 1238 Rocket 2.5 22:18:09 10° NNW 22:21:13 66° W 22:21:59 46° SSW
Cosmos 1452 Rocket 3.5 22:16:53 10° SSW 22:22:08 84° WNW 22:27:27 10° NNE
Landsat 7 3.9 22:21:42 38° SE 22:23:19 61° ENE 22:28:02 10° N
SPOT 5 4.2 22:19:21 13° SSW 22:23:35 39° W 22:28:35 10° NNW
H-2A R/B 4.3 22:24:56 10° SW 22:28:06 20° W 22:31:15 10° NW
BREEZE-M TANK 4.1 22:18:16 10° W 22:32:38 61° N 22:35:56 14° ENE
Cosmos 2084 3.0 22:32:17 65° SSE 22:32:39 70° ESE 22:36:28 10° NE
Cosmos 614 Rocket 4.4 22:30:19 10° N 22:35:15 46° ENE 22:36:32 38° ESE
Spot 4 4.5 22:34:20 37° ESE 22:35:27 43° ENE 22:40:03 10° N
Cosmos 2218 Rocket 4.1 22:32:39 33° SSE 22:35:31 63° E 22:41:51 10° NNE
Cosmos 1140 Rocket 3.4 22:30:55 10° NNW 22:36:04 74° ENE 22:37:36 45° SE
Terra 1.9 22:37:58 47° SE 22:39:05 61° ENE 22:43:47 10° N
ARGOS 3.6 22:38:34 28° SSW 22:41:15 56° W 22:46:32 10° NNW
DMSP B5D2-2 4.1 22:36:46 10° NNE 22:41:55 58° E 22:43:08 46° SSE
ATLAS 5 CENTAUR R/B 3.7 22:38:24 10° NW 22:43:41 31° WSW 22:46:55 20° SSW
DELTA 2 DEB (DPAF) 4.1 22:42:45 53° S 22:43:48 84° WSW 22:48:17 10° NNW
Okean 2 Rocket 3.4 22:42:45 31° SSW 22:44:42 61° W 22:49:05 10° N
USA 234 3.2 22:41:50 10° NE 22:48:25 87° SE 22:54:56 10° SW
Cosmos 2278 Rocket 2.3 22:43:31 13° SSW 22:48:38 74° WNW 22:54:20 10° NNE
Cosmos 1727 Rocket 4.0 22:47:32 10° N 22:53:41 64° E 22:55:26 45° SE
CZ-4C R/B 3.5 22:54:26 58° WSW 22:54:41 60° W 22:58:37 10° NNW
Cosmos 1833 Rocket 3.4 22:50:34 10° N 22:55:52 42° ENE 22:57:19 35° E
Cosmos 1850 Rocket 3.9 22:50:53 10° NNW 22:56:13 83° ENE 22:57:23 56° SSE
Cosmos 1825 4.2 22:54:30 14° WSW 22:56:51 25° WNW 23:00:03 10° NNW
Cosmos 1959 Rocket 4.4 22:58:48 36° SSW 23:01:30 82° W 23:07:39 10° N
Timation 2 Rocket 3.8 22:57:43 10° NNW 23:03:45 83° WSW 23:05:20 52° SSE
Cosmos 1812 3.6 23:01:50 10° N 23:04:51 39° NE 23:04:51 39° NE
Cosmos 2082 Rocket 2.3 23:02:48 10° NNW 23:08:31 66° ENE 23:09:37 54° ESE
COSMOS 2487 4.2 23:10:54 10° NW 23:13:44 26° W 23:13:44 26° W
Cosmos 1741 Rocket 4.0 23:08:52 10° NNW 23:14:05 71° WSW 23:14:51 60° SSW
IGS 5A 3.9 23:17:59 53° W 23:17:59 53° W 23:22:05 10° NNW
Cosmos 2297 3.7 23:16:56 44° SSW 23:18:52 82° WNW 23:24:38 10° NNE
DNEPR-1 R/B 3.8 23:15:11 10° NW 23:20:30 69° WSW 23:20:38 69° SW
APEX 3.8 23:22:47 55° W 23:23:06 57° WNW 23:27:53 10° NNE
Cosmos 1339 Rocket 4.4 23:17:51 10° N 23:24:01 90° W 23:25:21 58° S
Cosmos 1821 Rocket 4.4 23:31:30 44° ESE 23:31:57 45° E 23:37:51 10° NNE
Cosmos 1331 Rocket 4.2 23:33:49 55° ENE 23:33:49 55° ENE 23:38:19 10° NNE
USA 229 DEB 3.7 23:26:44 10° NNW 23:33:53 79° NE 23:35:48 52° SE
USA 229 3.8 23:26:50 10° NNW 23:33:59 78° NE 23:35:55 52° SE
Cosmos 1110 Rocket 3.9 23:36:09 71° E 23:36:09 71° E 23:41:09 10° NNE
CZ-4B R/B 4.3 23:38:42 10° NE 23:38:42 10° NE 23:38:49 10° NE
H-2A R/B 3.3 23:36:42 30° WSW 23:37:59 33° W 23:42:49 10° NNW
Cosmos 1536 Rocket 4.3 23:34:49 10° NNW 23:39:02 45° W 23:39:02 45° W
Okean 1 4.0 23:35:30 10° N 23:38:43 54° NNW 23:38:43 54° NNW
Iridium 4 Rocket 3.8 23:43:32 10° N 23:49:19 63° E 23:49:35 62° E
Cosmos 1934 Rocket 4.1 23:52:21 53° E 23:52:28 53° E 23:58:20 10° NNE
